Zurück zum Katalog

METEOR 2-14

AktivWetterPO
NORAD 16735·PAYLOAD·🇷🇺 Russia

Gestartet May 27, 1986 von Plesetsk Cosmodrome

Loading…

Nächste Überflüge (nächste 24 Stunden)

TLE

AktuellSource: Space-Track

Epoche: Sep 14, 2026, 15:35 UTC

1 16735U 86039A   26257.64996571  .00000049  00000-0  30263-4 0  9998
2 16735  82.5363 212.5023 0013632 316.9888 216.3528 13.85556882 37080

Verfolge METEOR 2-14 in Echtzeit mit AllMySat

Download on the App Store